Weather History for KWDG - November, 2012

Change the Weather History Date:

Thursday, November 22, 2012

  Actual Average Record
Temperature  
Mean Temperature 64 °F -  
Max Temperature 77 °F 54 °F 77 °F (2012)
Min Temperature 51 °F 37 °F 23 °F (2007)
Degree Days  
Heating Degree Days 1    
Growing Degree Days 14 (Base 50)    
Moisture  
Dew Point 46 °F    
Average Humidity 57    
Maximum Humidity 72    
Minimum Humidity 40    
Precipitation  
Precipitation 0.00 in - - ()
Sea Level Pressure  
Sea Level Pressure 30.02 in    
Wind  
Wind Speed 17 mph (SSW)    
Max Wind Speed 26 mph    
Max Gust Speed 36 mph    
Visibility 10 miles    
Events      
Averages and records for this station are not official NWS values.
T = Trace of Precipitation, MM = Missing Value Source: NWS Daily Summary

Daily Weather History Graph

Daily Weather History Graph

Search for Another Location

Airport or City:

Trip Planner

Search our weather history database for the weather conditions in past years. The results will help you decide how hot, cold, wet, or windy it might be!

Date:

Astronomy

Nov. 22, 2012 Rise Set
Actual Time 7:16 AM CST 5:18 PM CST
Civil Twilight 6:48 AM CST 5:46 PM CST
Nautical Twilight 6:16 AM CST 6:17 PM CST
Astronomical Twilight 5:45 AM CST 6:48 PM CST
Moon 1:57 PM CST (11/22) 1:45 AM CST (11/22)
Length of Visible Light 10h 58m
Length of Day
10h 02m
Waxing Gibbous, 71% of the Moon is Illuminated
Nov 22
Waxing Gibbous
Nov 28
Full
Dec 6
Last Quarter
Dec 13
New
Dec 19
First Quarter

Hourly Weather History & Observations

Time (CST) Temp. Dew Point Humidity Pressure Visibility Wind Dir Wind Speed Gust Speed Precip Events Conditions
12:15 AM 62.6 °F 46.4 °F 55% 29.96 in 10.0 mi South 17.3 mph 24.2 mph N/A   Clear
12:35 AM 62.6 °F 48.2 °F 59% 29.95 in 10.0 mi South 19.6 mph - N/A   Clear
12:55 AM 62.6 °F 50.0 °F 63% 29.94 in 10.0 mi South 17.3 mph 24.2 mph N/A   Clear
1:15 AM 62.6 °F 50.0 °F 63% 29.94 in 10.0 mi South 17.3 mph - N/A   Clear
1:35 AM 62.6 °F 50.0 °F 63% 29.94 in 10.0 mi South 17.3 mph - N/A   Clear
1:55 AM 62.6 °F 50.0 °F 63% 29.93 in 10.0 mi South 16.1 mph - N/A   Clear
2:15 AM 62.6 °F 50.0 °F 63% 29.93 in 10.0 mi South 18.4 mph 23.0 mph N/A   Clear
2:35 AM 62.6 °F 50.0 °F 63% 29.93 in 10.0 mi South 19.6 mph - N/A   Clear
2:55 AM 62.6 °F 50.0 °F 63% 29.93 in 10.0 mi South 18.4 mph - N/A   Clear
3:15 AM 62.6 °F 50.0 °F 63% 29.92 in 10.0 mi South 17.3 mph 21.9 mph N/A   Clear
3:35 AM 62.6 °F 50.0 °F 63% 29.92 in 10.0 mi South 17.3 mph - N/A   Clear
3:55 AM 62.6 °F 50.0 °F 63% 29.92 in 10.0 mi South 17.3 mph 21.9 mph N/A   Clear
4:15 AM 60.8 °F 50.0 °F 68% 29.92 in 10.0 mi South 15.0 mph - N/A   Clear
4:35 AM 60.8 °F 50.0 °F 68% 29.92 in 10.0 mi South 13.8 mph - N/A   Clear
4:55 AM 59.0 °F 50.0 °F 72% 29.92 in 10.0 mi South 11.5 mph - N/A   Clear
6:17 AM 60.8 °F 50.0 °F 68% 29.93 in 10.0 mi South 11.5 mph - N/A   Scattered Clouds
6:50 AM 59.0 °F 50.0 °F 72% 29.93 in 10.0 mi South 11.5 mph - N/A   Mostly Cloudy
7:50 AM 60.8 °F 51.8 °F 72% 29.93 in 10.0 mi South 11.5 mph - N/A   Mostly Cloudy
8:50 AM 62.6 °F 51.8 °F 68% 29.93 in 10.0 mi South 11.5 mph 20.7 mph N/A   Mostly Cloudy
9:50 AM 68.0 °F 51.8 °F 56% 29.94 in 10.0 mi South 18.4 mph 26.5 mph N/A   Scattered Clouds
10:50 AM 69.8 °F 51.8 °F 53% 29.93 in 10.0 mi SSW 19.6 mph 28.8 mph N/A   Scattered Clouds
11:50 AM 73.4 °F 51.8 °F 47% 29.90 in 10.0 mi SSW 20.7 mph 29.9 mph N/A   Scattered Clouds
12:50 PM 73.4 °F 51.8 °F 47% 29.88 in 10.0 mi SSW 17.3 mph 25.3 mph N/A   Mostly Cloudy
1:50 PM 77.0 °F 51.8 °F 41% 29.87 in 10.0 mi SSW 17.3 mph 26.5 mph N/A   Scattered Clouds
3:50 PM 77.0 °F 51.8 °F 41% 29.90 in 10.0 mi SW 13.8 mph 20.7 mph N/A   Partly Cloudy
4:50 PM 73.4 °F 51.8 °F 47% 29.94 in 10.0 mi SSW 8.1 mph - N/A   Partly Cloudy
5:50 PM 68.0 °F 50.0 °F 52% 29.98 in 10.0 mi North 10.4 mph - N/A   Scattered Clouds
7:50 PM 64.4 °F 39.2 °F 40% 30.11 in 10.0 mi North 23.0 mph 33.4 mph N/A   Scattered Clouds
8:35 PM 60.8 °F 39.2 °F 45% 30.15 in 10.0 mi North 26.5 mph 35.7 mph N/A   Clear
8:50 PM 60.8 °F 41.0 °F 48% 30.16 in 10.0 mi North 23.0 mph 34.5 mph N/A   Scattered Clouds
8:55 PM 59.0 °F 39.2 °F 48% 30.17 in 10.0 mi North 23.0 mph 28.8 mph N/A   Clear
9:15 PM 59.0 °F 39.2 °F 48% 30.19 in 10.0 mi North 24.2 mph 31.1 mph N/A   Clear
9:35 PM 57.2 °F 39.2 °F 51% 30.20 in 10.0 mi NNE 24.2 mph 31.1 mph N/A   Clear
9:55 PM 55.4 °F 39.2 °F 54% 30.21 in 10.0 mi North 19.6 mph - N/A   Clear
10:15 PM 53.6 °F 37.4 °F 54% 30.21 in 10.0 mi North 19.6 mph - N/A   Clear
10:35 PM 53.6 °F 37.4 °F 54% 30.23 in 10.0 mi North 20.7 mph - N/A   Clear
10:55 PM 53.6 °F 37.4 °F 54% 30.24 in 10.0 mi North 20.7 mph - N/A   Clear
11:15 PM 53.6 °F 37.4 °F 54% 30.26 in 10.0 mi North 18.4 mph 25.3 mph N/A   Clear
11:35 PM 51.8 °F 37.4 °F 58% 30.27 in 10.0 mi North 16.1 mph 23.0 mph N/A   Clear
11:55 PM 51.8 °F 35.6 °F 54% 30.28 in 10.0 mi North 13.8 mph - N/A   Clear